STARLINK-35332, 65887

Orbit data source: Space-Track

STARLINK-35332, 65887 is a payload satellite owned by SpaceX/Seattle (US) in LEO that was launched on Tue, 07 Oct 2025 UTC via an FALCON 9 launch vehicle from the Air Force Eastern Test Range (AFETR). Payload-class satellites include a variety of spacecraft equipped with specific instruments for various scientific and technological missions. These include communications satellites like Starlink; space stations such as the ISS; scientific satellites like the Hubble; Earth observation satellites from companies like Planet Labs, Umbra, and HawkEye 360; GPS; miniature CubeSats for education and research; and military/defense satellites.

Not visible in the next 10 days
Identifier
65887, 2025-224F
Orbit
LEO
Country
Flag of USUS
Related business
Manufacturer
SpaceX/Seattle
Mission
Operational spacecraft
Bus & Motor
STARLINK V2MO, Unknown motor
Mass
575 kg wet, ~530 kg dry
Launch date (UTC)
2025-10-07 (2 weeks ago)
Launch vehicle
FALCON 9
Launch site
Air Force Eastern Test Range (AFETR)
Object type
Payload
Rocket body
Debris
Shape & HBR
Unknown
Radar Cross Section
RCS unknown

Expand to show TLE details & history
Last TLE update: 8 hours ago

TLE from 8 hours ago
0 STARLINK-35332
1 65887U 25224F   25292.91670139 -.01547972  00000-0 -93060-2 0  9992
2 65887  53.1508 310.1566 0000817  78.1211 238.4231 15.79984004  3234
Epoch: 2025-10-19T22:00Z
TLE epoch observation values (Epoch: 2025-10-19T22:00:03.000Z)
Latitude
-33.61183°
Longitude
-78.17489°
Altitude
341.335 km
Speed
7.704 km/s
True Right ascension
18h 41m 51s
True Declination
-33° 26' 37"
Sunlit
Object was in daylight at epoch
Visualization orbit readout
Latitude
Unknown
Longitude
Unknown
Altitude
Unknown
Speed
Unknown
Apparent Right ascension
Unknown
Apparent Declination
Unknown
Sunlit
N/A
Visualization observer readout
Local Sidereal Time
00:30:11
Azimuth
Unknown
Elevation
Unknown
Doppler factor
Unknown
Orbital elements
Apogee altitude
331.297 km
Perigee altitude
330.201 km
Semi-major axis
6,708.886 km
Eccentricity
0.00008
Inclination
53.1508°
RAAN
310.1566°
Arg. of periapsis
78.1211°
True anomaly
238.41512°
Mean anomaly
238.4231°
Eccentric anomaly
238.41911°
Mean motion
3.94973 °/min
Orbital period
91.15 mins
BSTAR
-0.009306
Loading maneuver chart data...
Computing Atmospheric mass density...
Loading historical data...
Loading historical data...
Loading historical data...
Loading historical data...
Loading historical data...
Loading historical data...
Loading historical data...

Documentation

Showing up to 5 results
|